EW6572 Weather Reports


Display with metric or nautical units.
time (UTC)temp
F
wind
direction
speed
MPH
gust
MPH
rain 1hr
in
rain 24hr
in
rain mn
in
humidity
%
barometer
mb
20200408224107 78 235 3.0 10.0 0.00 0.00 0.00 53 1004.1
20200408223607 78 261 3.0 10.0 0.00 0.00 0.00 52 1004.0
20200408223108 78 226 4.0 14.0 0.00 0.00 0.00 51 1004.1
20200408222602 78 252 4.0 14.0 0.00 0.00 0.00 51 1004.1
20200408222103 78 254 5.0 18.0 0.00 0.00 0.00 52 1004.1
20200408221603 78 276 5.0 18.0 0.00 0.00 0.00 52 1004.0
20200408221103 78 254 3.0 14.0 0.00 0.00 0.00 52 1003.8
20200408220602 78 260 4.0 11.0 0.00 0.00 0.00 51 1003.8
20200408220102 78 250 4.0 12.0 0.00 0.00 0.00 52 1003.9
20200408215559 78 252 3.0 12.0 0.00 0.00 0.00 50 1003.8
20200408215058 79 255 4.0 13.0 0.00 0.00 0.00 53 1003.9
20200408214555 79 261 4.0 13.0 0.00 0.00 0.00 49 1003.9
20200408214054 79 273 4.0 14.0 0.00 0.00 0.00 50 1003.7
20200408213555 80 257 4.0 14.0 0.00 0.00 0.00 49 1003.5
20200408213054 79 248 4.0 13.0 0.00 0.00 0.00 53 1003.4
20200408212552 79 291 6.0 19.0 0.00 0.00 0.00 53 1003.5
20200408212050 79 238 6.0 19.0 0.00 0.00 0.00 49 1003.4
20200408211549 80 247 5.0 12.0 0.00 0.00 0.00 49 1003.4
20200408211047 80 226 5.0 14.0 0.00 0.00 0.00 50 1003.3
20200408210544 80 273 7.0 18.0 0.00 0.00 0.00 52 1003.3
20200408210042 80 244 6.0 18.0 0.00 0.00 0.00 50 1003.3
20200408205538 80 245 6.0 20.0 0.00 0.00 0.00 53 1003.3
20200408205039 80 198 7.0 20.0 0.00 0.00 0.00 50 1003.2
20200408204533 80 230 6.0 15.0 0.00 0.00 0.00 51 1003.2
20200408204031 80 212 6.0 19.0 0.00 0.00 0.00 52 1003.2
20200408203528 80 275 6.0 19.0 0.00 0.00 0.00 53 1003.4
20200408203026 79 242 7.0 17.0 0.00 0.00 0.00 53 1003.3
20200408202524 79 272 8.0 18.0 0.00 0.00 0.00 50 1003.4
20200408202022 79 245 7.0 18.0 0.00 0.00 0.00 51 1003.4
20200408201523 80 225 6.0 17.0 0.00 0.00 0.00 54 1003.4
20200408201024 80 216 6.0 18.0 0.00 0.00 0.00 52 1003.3
20200408200522 80 236 6.0 18.0 0.00 0.00 0.00 51 1003.5
20200408200020 79 243 8.0 17.0 0.00 0.00 0.00 52 1003.5
20200408195521 79 242 8.0 17.0 0.00 0.00 0.00 51 1003.5
20200408195025 79 227 8.0 18.0 0.00 0.00 0.00 52 1003.6
20200408194522 79 205 6.0 18.0 0.00 0.00 0.00 53 1003.6
20200408194019 78 245 6.0 16.0 0.00 0.00 0.00 54 1003.7
20200408193514 78 265 6.0 16.0 0.00 0.00 0.00 54 1004.1
20200408193016 78 246 5.0 15.0 0.00 0.00 0.00 55 1004.1
20200408192516 79 269 7.0 18.0 0.00 0.00 0.00 55 1004.2
20200408192009 79 249 7.0 18.0 0.00 0.00 0.00 55 1004.3
20200408191508 79 202 6.0 16.0 0.00 0.00 0.00 54 1004.3
20200408191002 79 319 6.0 16.0 0.00 0.00 0.00 53 1004.4
20200408190503 79 234 5.0 14.0 0.00 0.00 0.00 54 1004.5
20200408190000 78 252 3.0 9.0 0.00 0.00 0.00 57 1004.6
20200408185459 78 236 3.0 9.0 0.00 0.00 0.00 55 1004.5
20200408184955 77 283 4.0 14.0 0.00 0.00 0.00 55 1004.6
20200408184441 77 246 5.0 14.0 0.00 0.00 0.00 54 1004.8
20200408183941 78 266 5.0 19.0 0.00 0.00 0.00 54 1004.9
20200408183441 78 294 4.0 19.0 0.00 0.00 0.00 54 1005.2
20200408182941 78 294 4.0 12.0 0.00 0.00 0.00 55 1005.1
20200408182435 78 296 5.0 12.0 0.00 0.00 0.00 57 1005.2
20200408181935 78 264 6.0 17.0 0.00 0.00 0.00 55 1005.3
20200408181434 78 245 6.0 17.0 0.00 0.00 0.00 53 1005.7
20200408180935 78 270 5.0 18.0 0.00 0.00 0.00 57 1005.7
20200408180437 78 196 3.0 17.0 0.00 0.00 0.00 57 1005.7
20200408175932 78 213 3.0 14.0 0.00 0.00 0.00 57 1005.8
20200408175429 78 231 5.0 14.0 0.00 0.00 0.00 57 1005.8
20200408174928 78 324 4.0 13.0 0.00 0.00 0.00 56 1006.0
20200408174429 78 344 5.0 15.0 0.00 0.00 0.00 56 1006.1
20200408173928 78 242 6.0 15.0 0.00 0.01 0.00 55 1006.1
20200408173429 78 329 7.0 15.0 0.00 0.05 0.00 56 1006.1
20200408172927 78 199 6.0 13.0 0.00 0.13 0.00 55 1006.0
20200408172420 78 327 4.0 16.0 0.00 0.13 0.00 56 1006.0
20200408171921 78 259 4.0 16.0 0.00 0.13 0.00 59 1006.2
20200408171418 77 204 3.0 14.0 0.00 0.13 0.00 57 1006.2
20200408170914 76 290 2.0 12.0 0.00 0.13 0.00 60 1006.4
20200408170415 76 338 3.0 13.0 0.00 0.13 0.00 59 1006.4
20200408165908 76 290 5.0 13.0 0.00 0.13 0.00 57 1006.4
20200408165409 77 281 6.0 14.0 0.00 0.13 0.00 60 1006.5
20200408164908 77 265 4.0 17.0 0.00 0.13 0.00 58 1006.4
20200408164408 77 265 2.0 17.0 0.00 0.13 0.00 59 1006.4
20200408163908 76 322 2.0 11.0 0.00 0.13 0.00 61 1006.5
20200408163409 76 277 4.0 12.0 0.00 0.13 0.00 61 1006.6
20200408162901 77 336 4.0 12.0 0.00 0.13 0.00 59 1006.6
20200408162359 77 259 4.0 11.0 0.00 0.13 0.00 60 1006.6
20200408161858 76 237 5.0 12.0 0.00 0.13 0.00 58 1006.9
20200408161356 76 338 6.0 13.0 0.00 0.13 0.00 59 1006.8
20200408160857 76 298 6.0 18.0 0.00 0.13 0.00 61 1006.9
20200408160348 76 271 5.0 18.0 0.00 0.13 0.00 59 1006.8
20200408155848 76 338 5.0 15.0 0.00 0.13 0.00 61 1006.9
20200408155347 76 300 4.0 15.0 0.00 0.13 0.00 61 1006.8
20200408154844 76 273 4.0 15.0 0.00 0.13 0.00 61 1006.9
20200408154345 76 261 5.0 15.0 0.00 0.13 0.00 62 1006.9
20200408153844 75 256 5.0 15.0 0.00 0.13 0.00 64 1006.9
20200408153328 75 325 5.0 16.0 0.00 0.13 0.00 61 1006.9
20200408152826 75 277 3.0 14.0 0.00 0.13 0.00 61 1007.0
20200408152327 75 233 2.0 9.0 0.00 0.13 0.00 62 1006.9
20200408151820 74 330 3.0 10.0 0.00 0.13 0.00 65 1007.0
20200408151319 74 257 5.0 14.0 0.00 0.13 0.00 66 1006.9
20200408150820 73 293 7.0 16.0 0.00 0.13 0.00 64 1007.0
20200408150314 73 302 8.0 18.0 0.00 0.13 0.00 64 1007.0
20200408145815 74 355 5.0 18.0 0.00 0.13 0.00 65 1007.0
20200408145309 74 279 4.0 12.0 0.00 0.13 0.00 65 1006.9
20200408144810 73 292 7.0 13.0 0.00 0.13 0.00 65 1007.0
20200408144308 73 305 6.0 13.0 0.00 0.13 0.00 64 1006.9
20200408143809 73 261 5.0 17.0 0.00 0.13 0.00 63 1007.0
20200408143323 73 273 5.0 17.0 0.00 0.13 0.00 66 1007.0
20200408142809 73 312 5.0 15.0 0.00 0.13 0.00 64 1007.1
20200408142305 73 327 5.0 13.0 0.00 0.13 0.00 65 1007.1
20200408141805 73 279 5.0 12.0 0.00 0.13 0.00 63 1007.2
20200408141258 72 302 5.0 16.0 0.00 0.13 0.00 65 1007.2
20200408140756 72 252 4.0 16.0 0.00 0.13 0.00 63 1007.2
20200408140257 72 295 2.0 11.0 0.00 0.13 0.00 65 1007.1
20200408135755 72 260 3.0 12.0 0.00 0.13 0.00 65 1007.2
20200408135250 72 310 2.0 12.0 0.00 0.13 0.00 64 1007.2
20200408134748 72 317 2.0 9.0 0.00 0.13 0.00 65 1007.2
20200408134246 71 240 4.0 13.0 0.00 0.13 0.00 63 1007.2
20200408133743 71 254 3.0 13.0 0.00 0.13 0.00 65 1007.2
20200408133241 71 257 2.0 13.0 0.00 0.13 0.00 65 1007.2
20200408132740 71 239 3.0 13.0 0.00 0.13 0.00 65 1007.1
20200408132226 70 249 4.0 12.0 0.00 0.13 0.00 65 1007.1
20200408131726 70 244 4.0 14.0 0.00 0.13 0.00 67 1007.0
20200408131219 70 246 4.0 14.0 0.00 0.13 0.00 66 1007.0
20200408130719 70 244 3.0 15.0 0.00 0.13 0.00 69 1007.1
20200408130216 69 295 2.0 15.0 0.00 0.13 0.00 67 1007.2
20200408125714 69 285 2.0 14.0 0.00 0.13 0.00 69 1007.1
20200408125215 69 281 2.0 8.0 0.00 0.13 0.00 68 1007.3
20200408124707 68 303 1.0 8.0 0.00 0.13 0.00 68 1007.4
20200408124208 68 191 1.0 10.0 0.00 0.13 0.00 67 1007.4
20200408123704 68 302 2.0 10.0 0.00 0.13 0.00 68 1007.4
20200408123204 68 303 2.0 10.0 0.00 0.13 0.00 68 1007.4
20200408122703 67 282 2.0 10.0 0.00 0.13 0.00 67 1007.3
20200408122149 67 270 1.0 7.0 0.00 0.13 0.00 68 1007.4
20200408121642 67 252 2.0 10.0 0.00 0.13 0.00 68 1007.3
20200408121142 67 265 3.0 10.0 0.00 0.13 0.00 69 1007.1
20200408120634 66 237 3.0 11.0 0.00 0.13 0.00 69 1007.0
20200408120133 66 252 4.0 13.0 0.00 0.13 0.00 69 1006.9
20200408115628 66 256 5.0 13.0 0.00 0.13 0.00 69 1006.8
20200408115126 66 258 4.0 15.0 0.00 0.13 0.00 70 1006.7
20200408114627 65 264 4.0 15.0 0.00 0.13 0.00 70 1006.6
20200408114120 65 311 3.0 10.0 0.00 0.13 0.00 70 1006.5
20200408113620 65 265 3.0 12.0 0.00 0.13 0.00 70 1006.5
20200408113122 65 259 3.0 12.0 0.00 0.13 0.00 70 1006.5
20200408112614 65 248 4.0 12.0 0.00 0.13 0.00 70 1006.4
20200408112115 65 249 4.0 12.0 0.00 0.13 0.00 69 1006.4
20200408111608 65 225 4.0 9.0 0.00 0.13 0.00 70 1006.4
20200408111108 65 233 4.0 12.0 0.00 0.13 0.00 69 1006.2
20200408110608 66 238 6.0 16.0 0.00 0.13 0.00 69 1006.2
20200408110108 66 211 6.0 16.0 0.00 0.13 0.00 69 1006.1
20200408105608 66 191 6.0 15.0 0.00 0.13 0.00 69 1006.1
20200408105107 66 249 6.0 15.0 0.00 0.13 0.00 69 1005.9
20200408104602 65 207 5.0 15.0 0.00 0.13 0.00 69 1005.8
20200408104107 65 266 4.0 15.0 0.00 0.13 0.00 69 1005.8
20200408103559 66 222 5.0 12.0 0.00 0.13 0.00 69 1005.8
20200408103058 66 209 5.0 15.0 0.00 0.13 0.00 69 1005.6
20200408102556 66 229 6.0 15.0 0.00 0.13 0.00 69 1005.5
20200408102050 66 242 5.0 17.0 0.00 0.13 0.00 69 1005.5
20200408101550 66 227 5.0 17.0 0.00 0.13 0.00 69 1005.3
20200408101051 66 241 5.0 12.0 0.00 0.13 0.00 69 1005.4
20200408100544 66 237 5.0 12.0 0.00 0.13 0.00 69 1005.5
20200408100044 66 230 5.0 14.0 0.00 0.13 0.00 69 1005.3
20200408095541 66 238 5.0 15.0 0.00 0.13 0.00 70 1005.4
20200408095036 66 244 6.0 15.0 0.00 0.13 0.00 70 1005.4
20200408094535 66 254 4.0 13.0 0.00 0.13 0.00 71 1005.6
20200408094033 66 249 3.0 12.0 0.00 0.13 0.00 72 1005.4
20200408093533 66 244 3.0 10.0 0.00 0.13 0.00 72 1005.3
20200408093027 66 244 3.0 10.0 0.00 0.13 0.00 72 1005.3
20200408092517 66 252 4.0 10.0 0.00 0.13 0.00 72 1005.4
20200408091010 66 231 3.0 12.0 0.00 0.13 0.00 72 1005.3
20200408090510 66 236 4.0 12.0 0.00 0.13 0.00 72 1005.4
20200408090010 67 240 4.0 12.0 0.00 0.13 0.00 72 1005.5
20200408085511 67 221 5.0 12.0 0.00 0.13 0.00 72 1005.4
20200408085008 66 269 4.0 12.0 0.00 0.13 0.00 72 1005.4
20200408084510 66 236 4.0 16.0 0.00 0.13 0.00 72 1005.5
20200408084002 66 246 3.0 16.0 0.00 0.13 0.00 73 1005.5
20200408083500 66 280 4.0 15.0 0.00 0.13 0.00 72 1005.6
20200408082958 66 248 4.0 14.0 0.00 0.13 0.00 73 1005.6
20200408082458 66 225 4.0 14.0 0.00 0.13 0.00 73 1005.6
20200408082000 66 249 3.0 10.0 0.00 0.13 0.00 73 1005.7
20200408081434 66 221 3.0 10.0 0.00 0.13 0.00 73 1005.7
20200408080935 66 227 2.0 10.0 0.00 0.13 0.00 74 1005.7
20200408080433 65 242 2.0 7.0 0.00 0.13 0.00 74 1005.7
20200408075927 65 266 1.0 7.0 0.00 0.13 0.00 75 1005.8
20200408075425 65 221 0.0 3.0 0.00 0.13 0.00 76 1005.7
20200408074925 64 214 1.0 4.0 0.00 0.13 0.00 76 1005.8
20200408074403 64 206 1.0 5.0 0.00 0.13 0.00 78 1005.8
20200408073901 63 250 0.0 4.0 0.00 0.13 0.00 78 1005.8
20200408073359 63 217 0.0 3.0 0.00 0.13 0.00 78 1005.7
20200408072851 63 224 0.0 3.0 0.00 0.13 0.00 78 1005.9
20200408072347 63 225 0.0 1.0 0.00 0.13 0.00 77 1005.9
20200408071838 63 225 0.0 0.0 0.00 0.13 0.00 77 1005.9
20200408071311 64 225 0.0 1.0 0.00 0.13 0.00 76 1006.0
20200408070811 64 225 0.0 4.0 0.00 0.13 0.00 76 1005.9
20200408070257 64 223 0.0 4.0 0.00 0.13 0.00 75 1006.0
20200408065750 65 232 0.0 2.0 0.00 0.13 0.00 75 1006.0
20200408065241 65 232 0.0 2.0 0.00 0.13 0.00 74 1006.1
20200408064803 65 227 0.0 2.0 0.00 0.13 0.00 74 1006.1
20200408064211 65 227 0.0 4.0 0.00 0.13 0.00 73 1006.2
20200408063711 65 238 0.0 4.0 0.00 0.13 0.00 73 1006.3
20200408063210 65 226 0.0 4.0 0.00 0.13 0.00 73 1006.3
20200408062701 66 221 1.0 6.0 0.00 0.13 0.00 73 1006.4
20200408062153 66 250 1.0 6.0 0.00 0.13 0.00 73 1006.4
20200408061645 66 231 1.0 6.0 0.00 0.13 0.00 73 1006.5
20200408061122 66 274 1.0 6.0 0.00 0.13 0.00 73 1006.5
20200408060606 66 217 1.0 6.0 0.00 0.13 0.00 73 1006.6
20200408060107 66 201 1.0 7.0 0.00 0.13 0.00 73 1006.7
20200408055559 65 236 1.0 7.0 0.00 0.13 0.00 74 1006.7
20200408055053 65 229 0.0 5.0 0.00 0.13 0.00 74 1006.7
20200408054537 65 217 0.0 5.0 0.00 0.13 0.00 74 1006.8
20200408054037 65 202 0.0 4.0 0.00 0.13 0.00 74 1006.9
20200408053529 65 201 0.0 4.0 0.00 0.13 0.00 74 1007.0
20200408053025 65 244 1.0 5.0 0.00 0.13 0.00 74 1007.1
20200408052525 66 245 1.0 7.0 0.00 0.13 0.00 73 1007.1
20200408052017 65 214 2.0 7.0 0.00 0.13 0.00 73 1007.1
20200408051514 65 190 2.0 6.0 0.00 0.13 0.00 74 1007.3
20200408051013 65 227 1.0 7.0 0.00 0.13 0.00 74 1007.4
20200408050509 65 219 1.0 7.0 0.00 0.13 0.00 74 1007.6
20200408050007 65 242 1.0 5.0 0.00 0.13 0.00 74 1007.6
20200408045504 66 238 1.0 6.0 0.00 0.13 0.00 74 1007.7
20200408045002 66 235 1.0 6.0 0.00 0.13 0.00 74 1007.7
20200408044503 66 254 1.0 6.0 0.00 0.13 0.00 73 1007.7
20200408043959 66 261 1.0 6.0 0.00 0.13 0.00 73 1007.7
20200408043500 66 241 1.0 6.0 0.00 0.13 0.00 73 1007.7
20200408043000 66 223 1.0 9.0 0.00 0.13 0.00 73 1007.7
20200408042459 66 224 2.0 9.0 0.00 0.13 0.00 73 1007.8
20200408041957 66 252 1.0 7.0 0.00 0.13 0.00 73 1007.8
20200408041456 66 241 1.0 6.0 0.00 0.13 0.00 73 1007.9
20200408040947 66 212 2.0 7.0 0.00 0.13 0.00 73 1007.9
20200408040411 66 228 2.0 7.0 0.00 0.13 0.00 74 1008.1
20200408035910 66 222 1.0 6.0 0.00 0.13 0.13 74 1008.2
20200408035412 66 232 1.0 7.0 0.00 0.13 0.13 74 1008.3
20200408034910 66 251 1.0 7.0 0.00 0.13 0.13 74 1008.3
20200408034411 66 234 0.0 4.0 0.00 0.13 0.13 74 1008.4
20200408033910 66 224 0.0 3.0 0.00 0.13 0.13 74 1008.4
20200408033411 67 213 0.0 3.0 0.00 0.13 0.13 73 1008.5
20200408032907 67 231 0.0 1.0 0.00 0.13 0.13 72 1008.3
20200408032407 67 210 0.0 4.0 0.00 0.13 0.13 71 1008.5
20200408031908 67 210 1.0 5.0 0.00 0.13 0.13 72 1008.5
20200408031404 67 221 0.0 5.0 0.00 0.13 0.13 72 1008.6
20200408030903 67 175 0.0 4.0 0.00 0.13 0.13 72 1008.7
20200408030403 67 207 1.0 7.0 0.00 0.13 0.13 71 1008.7
20200408025901 68 205 1.0 7.0 0.00 0.13 0.13 71 1008.8
20200408025354 68 226 1.0 7.0 0.00 0.13 0.13 71 1008.8
20200408024850 68 229 1.0 7.0 0.00 0.13 0.13 70 1008.9
20200408024350 68 153 1.0 5.0 0.00 0.13 0.13 71 1008.9
20200408023852 67 237 1.0 6.0 0.00 0.13 0.13 71 1009.0
20200408023343 67 223 0.0 6.0 0.00 0.13 0.13 71 1009.0
20200408022844 67 244 0.0 3.0 0.00 0.13 0.13 71 1009.0
20200408022328 67 247 0.0 3.0 0.00 0.13 0.13 70 1009.0
20200408021803 67 221 0.0 1.0 0.00 0.13 0.13 70 1009.0
20200408021254 68 221 0.0 1.0 0.00 0.13 0.13 69 1009.0
20200408020748 68 221 0.0 2.0 0.00 0.13 0.13 68 1009.0
20200408020243 68 221 0.0 2.0 0.00 0.13 0.13 68 1008.9
20200408015724 69 221 0.0 1.0 0.00 0.13 0.13 67 1008.8
20200408015223 69 221 0.0 1.0 0.00 0.13 0.13 66 1008.8
20200408014713 69 221 0.0 4.0 0.00 0.13 0.13 65 1008.8
20200408014212 70 216 0.0 4.0 0.00 0.13 0.13 65 1009.0
20200408013711 70 222 0.0 4.0 0.00 0.13 0.13 64 1008.9
20200408013208 70 223 0.0 5.0 0.00 0.13 0.13 64 1008.8
20200408012706 69 226 1.0 5.0 0.00 0.13 0.13 65 1008.8
20200408012156 69 242 0.0 5.0 0.00 0.13 0.13 65 1008.8
20200408011651 70 217 0.0 10.0 0.00 0.13 0.13 65 1008.8
20200408011147 70 217 1.0 10.0 0.00 0.13 0.13 64 1008.9
20200408010647 70 240 1.0 9.0 0.00 0.13 0.13 64 1008.8
20200408010138 70 199 1.0 6.0 0.00 0.13 0.13 64 1008.8
20200408005638 70 233 1.0 11.0 0.00 0.13 0.13 65 1008.8
20200408005135 70 244 1.0 11.0 0.00 0.13 0.13 63 1008.8
20200408004636 70 224 1.0 6.0 0.00 0.13 0.13 63 1008.8
20200408004109 71 249 1.0 6.0 0.00 0.13 0.13 63 1008.8
20200408003609 71 217 1.0 6.0 0.00 0.13 0.13 61 1008.8
20200408003109 71 232 0.0 5.0 0.00 0.13 0.13 60 1008.8
20200408002605 72 207 1.0 7.0 0.00 0.13 0.13 60 1008.8
20200408002105 72 202 0.0 7.0 0.00 0.13 0.13 59 1008.8
20200408001556 72 238 1.0 8.0 0.00 0.13 0.13 58 1008.8
20200408000539 73 198 1.0 7.0 0.00 0.13 0.13 57 1008.8
20200408000036 73 213 2.0 6.0 0.00 0.13 0.13 58 1008.8
20200407235527 73 227 1.0 6.0 0.00 0.13 0.13 58 1009.0
20200407235025 73 229 1.0 7.0 0.00 0.13 0.13 56 1008.9
20200407234525 74 222 1.0 13.0 0.00 0.13 0.13 57 1008.9
20200407234013 74 211 1.0 13.0 0.00 0.13 0.13 57 1008.9
20200407233505 74 213 2.0 10.0 0.00 0.13 0.13 57 1008.9
20200407233005 74 196 2.0 7.0 0.00 0.13 0.13 55 1009.0
20200407232501 75 217 1.0 6.0 0.00 0.13 0.13 56 1009.0
20200407231959 75 226 3.0 7.0 0.00 0.13 0.13 55 1008.9
20200407231454 75 236 3.0 7.0 0.00 0.13 0.13 56 1009.0
20200407230951 75 219 2.0 7.0 0.00 0.13 0.13 54 1009.1
20200407230452 76 214 1.0 11.0 0.00 0.13 0.13 54 1009.0
20200407225951 76 200 1.0 11.0 0.00 0.13 0.13 57 1009.1
20200407225449 76 223 1.0 12.0 0.00 0.13 0.13 56 1009.1
20200407224928 76 240 1.0 12.0 0.00 0.13 0.13 54 1009.2